Starlink 32081

operational
NORAD ID: 60348 Int'l Des: 2024-136 Owner: SPXS Country: US Constellation: starlink
LEOCIRCULAR

Über Starlink 32081

Beschreibung wird geladen...

Live-Position

3D-Globus wird geladen...

Nächste Überflüge

Höhenverlauf

Altitude vs Time

uPlot chart will show altitude changes over time

Zweizeiliger Elementsatz

1 60348U 24136V 25261.03634798 -.00003306 00000-0 -99645-4 0 9994
2 60348 53.1604 157.3951 0001404 75.6966 284.4191 15.30166816 63231
Epoch: 18. Sept. 2025 • Age: 21 hours

Aktueller Status

Höhe 480.1 km
Geschwindigkeit 7.63 km/s
Subsatellitenpunkt 49.15°N, 50.11°W
Startdatum 2. Aug. 2024
Alter 1.1 years
Typ internet

Technische Details

Klassifizierung Payload
Masse 730.00 kg
Trockenmasse 700.00 kg
Gesamtmasse 730.00 kg
Länge 0.30 m
Durchmesser 4.10 m
Spannweite 29.00 m
Form Box + pan
Hersteller SPXS
Bus-Typ Starlink V2M
Phasenstatus In Orbit
Besitzer/Staat SPXS/US

Große Konstellationen

Loading constellations...